Voltar ao catálogo

SL-8 DEB

AtivoLEO
NORAD 21170·DEBRIS·🇷🇺 Russia

Lançado Feb 12, 1991 de Plesetsk Cosmodrome

Loading…

Próximas Passagens (próximas 24 horas)

TLE

AtualizadoSource: Space-Track

Época: Sep 14, 2026, 14:15 UTC

1 21170U 91009AH  26257.59395052  .00000191  00000-0  20949-2 0  9997
2 21170  74.1159   2.4053 0151906 322.1712  50.6034 12.12969933573158

Acompanhe SL-8 DEB em tempo real com AllMySat

Download on the App Store